www.pogodaiklimat.ru

Погода и климат >> Архив погоды >> Россия >> Магаданская область >> Озеро Джека Лондона


ПОГОДА на Озере Джека Лондона

  • Прогноз погоды на Озере Джека Лондона
  • Монитор погоды на Озере Джека Лондона

АРХИВ ПОГОДЫ на Озере Джека Лондона

Время (UTC), дата Ветер
(напр.,м/с)
 
Видим.   Явления Облачность Т
(С)
Тd
(С)
f
(%)
Тe
(С)
Тes
(С)
Комфортность P
(гПа)
Po
(гПа)
Тmin
(С)
Tmax
(С)
R
(мм)
R24
(мм)
S
(см)
09 13.04 ЮВ 4 50 км 8/3 600 м
[Sc Ac trans Ci fib]
-6.4 -11.1 69 -13 -13 1013.3 914.7 -3.1
12 13.04 Ю 2
{11}
н/о н/о -9.7 -12.9 77 -14 -14 1015.4 915.3
15 13.04 ЮВ 2 50 км 5/0
[Ac trans Ci fib]
-14.1 -15.9 86 -19 -19 1017.8 916.0
18 13.04 З 2 н/о н/о -13.1 -14.7 88 -18 -18 1018.9 917.3
21 13.04 ЮВ 2 50 км ясно -16.4 -18.4 84 -22 -20 1018.8 915.9 -18.1 82
00 14.04 З 1 н/о н/о -5.2 -11.9 59 -7 -7 1015.7 917.3
03 14.04 СЗ 1 50 км 8/0
[Ac trans Ci fib]
-2.4 -8.9 61 -4 -1 1013.2 916.0
06 14.04 З 2 н/о н/о -1.2 -9.1 55 -4 -4 1012.7 916.0
09 14.04 ЮВ 3 50 км 10/0
[Cs]
-3.3 -13.3 46 -8 -8 1013.6 916.0 +1.7
12 14.04 З 2 н/о н/о -12.0 -16.0 72 -17 -17 1017.0 916.0
15 14.04 ЮВ 1 50 км 10/0
[Cs]
-18.1 -20.5 81 -21 -21 1019.5 916.0
18 14.04 ЮВ 1 н/о н/о -21.2 -23.2 84 -24 -24 1019.4 914.7
21 14.04 Ю 1 50 км ясно -20.1 -22.3 83 -23 -21 1017.9 913.6 -23.2 81
00 15.04 ЮВ 4 н/о н/о -5.3 -13.6 52 -11 -11 1012.9 914.7
03 15.04 Ю 3
{11}
50 км 9/3 600 м
[Sc Ac lent Ci fib]
-4.6 -13.9 48 -9 -9 1012.6 914.7
06 15.04 Ю 2 н/о н/о -4.7 -13.3 51 -8 -8 1012.7 914.7
09 15.04 Ю 4 50 км 8/8 600 м
[Cb cap]
-6.8 -12.3 65 -13 -13 1014.9 916.0 -3.5
12 15.04 ЮВ 6 н/о н/о -8.3 -12.1 74 -17 -17 1015.5 916.0
15 15.04 ЮВ 3 50 км 5/5 600 м
[Cb cap]
-9.7 -11.9 84 -16 -16 1016.0 916.0
18 15.04 В 2 н/о н/о -11.7 -12.9 91 -16 -16 1018.3 917.3
21 15.04 С 1 50 км 9/3 600 м
[Cb cap Ac und]
-11.6 -13.0 89 -14 -13 1017.8 916.8 -14.8 81
00 16.04 З 3 н/о н/о -5.9 -13.7 54 -11 -11 1016.0 917.3
03 16.04 ЮЗ 3 50 км 3/3 1000 м
[Cu hum Ac trans]
-3.6 -13.8 45 -8 -2 1016.7 918.7
06 16.04 Ю 4 н/о н/о -4.3 -13.6 48 -10 1016.9 918.7
09 16.04 С 1 50 км 8/3 600 м
[Cb cap Ci fib]
-7.3 -14.8 55 -9 -9 1019.5 920.0 -3.4
12 16.04 З 1 н/о н/о -13.1 -16.7 74 -15 -15 1021.9 920.0
15 16.04 Ю 1 50 км 4/0
[Ci fib]
-18.0 -20.0 84 -21 -21 1023.9 920.0
18 16.04 штиль 0 н/о н/о -17.8 -19.8 84 -18 -18 1023.8 920.0
21 16.04 штиль 0 50 км 10/0
[Ac und]
-14.3 -16.8 81 -14 -14 1020.9 918.7 -18.6 81
00 17.04 С 1 н/о н/о -5.9 -10.7 69 -8 -8 1017.5 918.7
03 17.04 В 2 10 км осадки на расстоянии 10/10 600 м
[Cb cap]
-1.4 -10.0 52 -5 -5 1015.8 918.7
06 17.04 ЮВ 5 н/о н/о -1.5 -5.5 74 -8 -8 1014.3 917.3
09 17.04 ЮВ 6 4000 м слаб. ливневой снег 10/10 600 м
[Cb cap]
-1.4 -6.2 70 -8 -8 1014.2 917.3 -0.8 2
12 17.04 Ю 8 н/о н/о -2.2 -8.1 64 -10 1013.1 916.0
15 17.04 ЮВ 6
{12}
20 км сильный позёмок 10/10 600 м
[Cb cap]
-4.2 -6.9 81 -12 -12 1012.0 914.2
18 17.04 ЮВ 7 н/о н/о -4.2 -6.2 86 -12 1010.9 913.3
21 17.04 ЮВ 7
{10}
10 км слаб. ливневой снег {метель} 10/10 600 м
[Cb cap]
-4.3 -5.7 90 -13 -13 1010.9 913.3 -4.6 0.8 83
00 18.04 ЮВ 6 н/о н/о -3.3 -5.8 83 -11 -11 1010.5 913.3
03 18.04 Ю 7 20 км осадки на расстоянии 8/8 600 м
[Cb cap]
-1.9 -10.0 54 -9 -8 1011.6 914.7
06 18.04 Ю 3 н/о н/о -1.9 -8.9 59 -6 -6 1011.6 914.6
09 18.04 Ю 2 50 км 10/8 600 м
[Cb cap Ac As]
-3.9 -8.4 71 -8 -8 1015.2 917.3 +0.2 0.3
12 18.04 В 2 н/о н/о -5.7 -8.6 80 -10 -10 1017.4 918.7
15 18.04 В 1 50 км 8/5 600 м
[Cb cap Ac trans]
-7.8 -11.0 78 -10 -10 1019.7 920.0
18 18.04 штиль 0 н/о н/о -10.4 -12.0 88 -11 -11 1021.4 920.5
21 18.04 штиль 0 50 км 8/3 600 м
[Sc Ac trans]
-10.3 -12.8 82 -11 -10 1022.4 921.4 -11.6 82
00 19.04 ЮВ 1 н/о н/о -3.5 -8.7 67 -5 -5 1021.0 922.7
03 19.04 З 1 2000 м слаб. ливневой снег 10/10 600 м
[Cb cap]
-3.7 -6.6 80 -6 -6 1021.1 922.7
06 19.04 СВ 1 н/о н/о -3.3 -5.8 83 -6 -6 1020.9 922.7
09 19.04 З 1 4000 м слаб. ливневой снег 10/10 600 м
[Cb cap]
-4.3 -6.3 86 -7 -7 1021.3 922.7 -1.0 2
12 19.04 СЗ 2 н/о н/о -8.7 -9.8 92 -13 -13 1023.0 922.7
15 19.04 З 2 50 км 10/10 600 м
[Cb cap]
-6.4 -7.8 90 -11 -11 1020.6 921.3
18 19.04 ЮВ 5 н/о н/о -3.2 -5.7 83 -10 1019.3 921.3
21 19.04 ЮВ 6 50 км 10/10 600 м
[Cb cap]
-2.4 -5.1 82 -10 -10 1017.7 920.0 -9.0 0.5 82
00 20.04 ЮВ 4 н/о н/о -1.8 -3.5 88 -8 1018.8 921.3
03 20.04 ЮВ 7 20 км в посл. час ливневой снег 9 баллов -1.9 -3.5 89 -10 -9 1020.3 922.7

 

Местоположение метеостанции Озеро Джека Лондона (Магаданская область, Россия): широта 62.08 долгота 149.50 высота над уровнем моря 807 м.

В архиве по умолчанию представлена погода на Озере Джека Лондона за последнюю неделю. Архивные данные за месяц целиком и за предыдущие месяцы, начиная с января 2011 года, Вы можете получить, выбрав интересующий диапазон дат из раскрывающегося списка и нажав кнопку "Ввод!".


*Определитесь, кто Вы:
робот инопланетянин человек

Внимание! Время в таблицах - всемирное. Для получения местного времени необходимо прибавить поправку, которая равна 11 ч.

Смотрите также архив погоды в соседних городах и на ближайших метеорологических станциях:

Погода в Ягодной (Магаданская область, Россия) (48 км)
Погода в Усть-Бохапче (Магаданская область, Россия) (57 км)
Погода в Совхозе Эльген (Магаданская область, Россия) (98 км)
Погода в Колымской (Магаданская область, Россия) (103 км)
Погода в Сусумане (Магаданская область, Россия) (106 км)
Погода в Усть-Омчуге (Магаданская область, Россия) (107 км)
Погода в Среднекане (Магаданская область, Россия) (151 км)
Погода в Сеймчане (Магаданская область, Россия) (175 км)
Погода в Мадауне (Магаданская область, Россия) (177 км)
Погода в Талой (Магаданская область, Россия) (182 км)

Пояснения к столбцам:

Ветер - указаны скорость ветра в м/с - средняя за 10 мин, порывы в срок и между сроками (в фигурных скобках) и направление, откуда дует ветер: С - северный, СВ - северо-восточный, В - восточный, ЮВ - юго-восточный, Ю - южный, ЮЗ - юго-западный, З - западный, СЗ - северо-западный.
Видимость - горизонтальная дальность видимости в метрах или километрах. При видимости от 1 до 10 км при отсутствии осадков обычно наблюдается дымка, при ухудшении видимости до 1 км и менее - туман. В сухую погоду видимость может ухудшаться дымом, пылью или мглою.
Явления - указаны атмосферные явления, наблюдавшиеся в срок или в последний час перед сроком; фигурными скобками обозначены явления, наблюдавшиеся между сроками (за 1-3 часа до срока); квадратными скобками обозначены град или гололедные отложения с указанием их диаметра в мм.
Облачность - указаны через наклонную черту общая и нижняя облачность в баллах и высота нижней границы облаков в метрах; квадратными скобками обозначены формы облаков: Ci - перистые, Cs - перисто-слоистые, Cc - перисто-кучевые, Ac - высококучевые, As - высокослоистые, Sc - слоисто-кучевые, Ns - слоисто-дождевые, Cu - кучевые, Cb - кучево-дождевые. Подробнее классификацию облаков см. в Атласе облаков (PDF).
T - Температура воздуха - температура, измеренная на высоте 2 м над землей.
Td - Температура точки росы - температура, при понижении до которой содержащийся в воздухе водяной пар достигнет насыщения.
f - Относительная влажность воздуха - влажноcть воздуха, измеренная на высоте 2 м над землей.
Te - Эффективная температура - температура, которую ощущает одетый по сезону человек в тени. Характеристика душности погоды. При расчете учитывается влияние влажности воздуха и скорости ветра на теплоощущения человека.
Tes - Эффективная температура на солнце - температура, которую ощущает человек, с поправкой на солнечный нагрев. Характеристика знойности погоды. Зависит от высоты солнца над горизонтом, облачности и скорости ветра. Ночью, в пасмурную погоду, а также при ветре 12 м/с и более поправка равна нулю.
P - Атмосферное давление - приведенное к уровню моря атмосферное давление.
Po - Атмосферное давление - измеренное на уровне метеостанции атмосферное давление.
Tmin - Минимальная температура - минимум температуры воздуха на высоте 2 м над землей.
Tmax - Максимальная температура - максимум температуры воздуха на высоте 2 м над землей.
R - Количество осадков - Количество выпавших осадков за период времени, мм. При наведении курсора мыши на число - период времени, за который выпало указанное количество осадков.
R24 - Количество осадков - Количество выпавших осадков за 24 часа, мм.
S - Снежный покров - Высота снежного покрова, см. При наведении курсора мыши на число - состояние снежного покрова и степень покрытия местности в баллах.